Time,TemperatureF,DewpointF,PressureIn,WindDirection,WindDirectionDegrees,WindSpeedMPH,WindSpeedGustMPH,Humidity,HourlyPrecipIn,Conditions,Clouds,dailyrainin,SoftwareType,DateUTC
2013-01-04 00:00:00,17.2,7.4,29.74,West,270,0.0,0.0,65,0.00,,,0.00,WUHU216HW,2013-01-04 05:00:00,
2013-01-04 00:02:00,17.2,7.4,29.74,West,270,0.0,0.0,65,0.00,,,0.00,WUHU216HW,2013-01-04 05:02:00,
2013-01-04 00:04:00,17.2,7.7,29.74,West,270,0.0,0.0,66,0.00,,,0.00,WUHU216HW,2013-01-04 05:04:00,
2013-01-04 00:09:00,16.8,7.4,29.73,West,270,0.0,0.0,66,0.00,,,0.00,WUHU216HW,2013-01-04 05:09:00,
2013-01-04 00:14:00,16.7,7.4,29.73,West,270,0.0,0.0,66,0.00,,,0.00,WUHU216HW,2013-01-04 05:14:00,
2013-01-04 00:19:00,16.7,7.5,29.72,West,270,0.0,0.0,67,0.00,,,0.00,WUHU216HW,2013-01-04 05:19:00,
2013-01-04 00:24:00,16.7,7.5,29.73,West,270,0.0,0.0,67,0.00,,,0.00,WUHU216HW,2013-01-04 05:24:00,
2013-01-04 00:29:00,16.7,7.5,29.72,West,270,0.0,0.0,67,0.00,,,0.00,WUHU216HW,2013-01-04 05:29:00,
2013-01-04 00:34:00,16.5,7.3,29.72,West,270,0.0,0.0,67,0.00,,,0.00,WUHU216HW,2013-01-04 05:34:00,
2013-01-04 00:39:00,16.3,7.2,29.72,West,270,0.0,0.0,67,0.00,,,0.00,WUHU216HW,2013-01-04 05:39:00,
2013-01-04 00:44:00,16.3,7.2,29.72,West,270,0.0,0.0,67,0.00,,,0.00,WUHU216HW,2013-01-04 05:44:00,
2013-01-04 00:49:00,16.1,7.0,29.72,West,270,0.0,0.0,67,0.00,,,0.00,WUHU216HW,2013-01-04 05:49:00,
2013-01-04 00:54:00,15.8,7.0,29.72,West,270,0.0,0.0,68,0.00,,,0.00,WUHU216HW,2013-01-04 05:54:00,
2013-01-04 00:59:00,15.6,6.8,29.71,West,270,0.0,0.0,68,0.00,,,0.00,WUHU216HW,2013-01-04 05:59:00,
2013-01-04 01:04:00,15.6,6.8,29.71,West,270,0.0,0.0,68,0.00,,,0.00,WUHU216HW,2013-01-04 06:04:00,
2013-01-04 01:09:00,15.6,7.1,29.71,West,270,0.0,0.0,69,0.00,,,0.00,WUHU216HW,2013-01-04 06:09:00,
2013-01-04 01:14:00,15.9,7.5,29.71,West,270,0.0,0.0,69,0.00,,,0.00,WUHU216HW,2013-01-04 06:14:00,
2013-01-04 01:19:00,16.3,8.2,29.71,West,270,0.0,0.0,70,0.00,,,0.00,WUHU216HW,2013-01-04 06:19:00,
2013-01-04 01:24:00,16.8,8.7,29.72,West,270,0.0,0.0,70,0.00,,,0.00,WUHU216HW,2013-01-04 06:24:00,
2013-01-04 01:29:00,17.2,9.1,29.71,West,270,0.0,0.0,70,0.00,,,0.00,WUHU216HW,2013-01-04 06:29:00,
2013-01-04 01:34:00,17.7,9.9,29.72,WNW,293,0.0,0.0,71,0.00,,,0.00,WUHU216HW,2013-01-04 06:34:00,
2013-01-04 01:39:00,18.3,10.4,29.71,WNW,293,0.0,2.6,71,0.00,,,0.00,WUHU216HW,2013-01-04 06:39:00,
2013-01-04 01:44:00,19.0,10.7,29.72,West,270,0.0,2.6,70,0.00,,,0.00,WUHU216HW,2013-01-04 06:44:00,
2013-01-04 01:49:00,19.5,11.3,29.72,WNW,293,7.1,7.1,70,0.00,,,0.00,WUHU216HW,2013-01-04 06:49:00,
2013-01-04 01:54:00,20.1,11.8,29.72,West,270,2.6,7.1,70,0.00,,,0.00,WUHU216HW,2013-01-04 06:54:00,
2013-01-04 01:59:00,20.4,11.8,29.72,West,270,1.5,2.6,69,0.00,,,0.00,WUHU216HW,2013-01-04 06:59:00,
2013-01-04 02:04:00,20.4,11.8,29.72,WNW,293,1.3,2.6,69,0.00,,,0.00,WUHU216HW,2013-01-04 07:04:00,
2013-01-04 02:09:00,20.8,12.2,29.72,WSW,248,1.5,1.7,69,0.00,,,0.00,WUHU216HW,2013-01-04 07:09:00,
2013-01-04 02:14:00,20.8,11.8,29.72,West,270,2.6,2.6,68,0.00,,,0.00,WUHU216HW,2013-01-04 07:14:00,
2013-01-04 02:19:00,20.8,11.8,29.72,West,270,0.0,2.6,68,0.00,,,0.00,WUHU216HW,2013-01-04 07:19:00,
2013-01-04 02:24:00,21.0,12.0,29.72,West,270,0.0,4.2,68,0.00,,,0.00,WUHU216HW,2013-01-04 07:24:00,
2013-01-04 02:29:00,21.0,12.0,29.71,West,270,0.0,4.2,68,0.00,,,0.00,WUHU216HW,2013-01-04 07:29:00,
2013-01-04 02:34:00,21.0,12.0,29.71,West,270,0.0,0.0,68,0.00,,,0.00,WUHU216HW,2013-01-04 07:34:00,
2013-01-04 02:39:00,20.8,11.8,29.71,SSW,203,5.3,5.3,68,0.00,,,0.00,WUHU216HW,2013-01-04 07:39:00,
2013-01-04 02:44:00,21.0,12.0,29.70,WSW,248,3.1,5.3,68,0.00,,,0.00,WUHU216HW,2013-01-04 07:44:00,
2013-01-04 02:49:00,21.0,12.0,29.71,West,270,0.0,5.3,68,0.00,,,0.00,WUHU216HW,2013-01-04 07:49:00,
2013-01-04 02:54:00,21.3,12.3,29.71,West,270,4.2,6.2,68,0.00,,,0.00,WUHU216HW,2013-01-04 07:54:00,
2013-01-04 02:59:00,21.3,12.3,29.71,West,270,0.0,6.2,68,0.00,,,0.00,WUHU216HW,2013-01-04 07:59:00,
2013-01-04 03:04:00,21.3,12.3,29.71,West,270,2.6,4.2,68,0.00,,,0.00,WUHU216HW,2013-01-04 08:04:00,
2013-01-04 03:10:00,21.3,12.3,29.71,West,270,5.5,5.5,68,0.00,,,0.00,WUHU216HW,2013-01-04 08:10:00,
2013-01-04 03:15:00,21.5,12.5,29.71,West,270,3.1,5.5,68,0.00,,,0.00,WUHU216HW,2013-01-04 08:15:00,
2013-01-04 03:20:00,21.5,12.5,29.71,West,270,5.3,5.5,68,0.00,,,0.00,WUHU216HW,2013-01-04 08:20:00,
2013-01-04 03:25:00,21.5,12.5,29.71,West,270,5.1,5.8,68,0.00,,,0.00,WUHU216HW,2013-01-04 08:25:00,
2013-01-04 03:30:00,21.5,12.5,29.71,West,270,0.0,5.8,68,0.00,,,0.00,WUHU216HW,2013-01-04 08:30:00,
2013-01-04 03:35:00,21.7,13.1,29.71,West,270,1.7,2.9,69,0.00,,,0.00,WUHU216HW,2013-01-04 08:35:00,
2013-01-04 03:40:00,21.7,13.1,29.70,West,270,2.2,2.9,69,0.00,,,0.00,WUHU216HW,2013-01-04 08:40:00,
2013-01-04 03:45:00,21.9,13.2,29.70,West,270,0.6,3.5,69,0.00,,,0.00,WUHU216HW,2013-01-04 08:45:00,
2013-01-04 03:50:00,22.1,13.4,29.70,West,270,0.0,3.5,69,0.00,,,0.00,WUHU216HW,2013-01-04 08:50:00,
2013-01-04 03:55:00,22.1,13.4,29.70,West,270,1.1,1.1,69,0.00,,,0.00,WUHU216HW,2013-01-04 08:55:00,
2013-01-04 04:00:00,22.2,14.0,29.70,West,270,4.6,4.6,70,0.00,,,0.00,WUHU216HW,2013-01-04 09:00:00,
2013-01-04 04:05:00,22.6,14.3,29.70,WNW,293,0.0,4.6,70,0.00,,,0.00,WUHU216HW,2013-01-04 09:05:00,
2013-01-04 04:10:00,22.8,14.5,29.70,WNW,293,0.8,4.6,70,0.00,,,0.00,WUHU216HW,2013-01-04 09:10:00,
2013-01-04 04:15:00,22.8,14.1,29.70,WNW,293,0.0,0.8,69,0.00,,,0.00,WUHU216HW,2013-01-04 09:15:00,
2013-01-04 04:20:00,22.8,14.5,29.69,WNW,293,6.7,6.7,70,0.00,,,0.00,WUHU216HW,2013-01-04 09:20:00,
2013-01-04 04:25:00,22.8,14.5,29.70,WNW,293,0.0,6.7,70,0.00,,,0.00,WUHU216HW,2013-01-04 09:25:00,
2013-01-04 04:30:00,22.8,14.5,29.70,WNW,293,0.0,6.7,70,0.00,,,0.00,WUHU216HW,2013-01-04 09:30:00,
2013-01-04 04:35:00,22.6,14.3,29.70,WNW,293,2.2,2.2,70,0.00,,,0.00,WUHU216HW,2013-01-04 09:35:00,
2013-01-04 04:40:00,22.4,14.1,29.70,WNW,293,0.0,2.2,70,0.00,,,0.00,WUHU216HW,2013-01-04 09:40:00,
2013-01-04 04:45:00,22.4,14.1,29.70,WNW,293,1.7,2.2,70,0.00,,,0.00,WUHU216HW,2013-01-04 09:45:00,
2013-01-04 04:50:00,22.2,14.0,29.70,WNW,293,1.7,1.7,70,0.00,,,0.00,WUHU216HW,2013-01-04 09:50:00,
2013-01-04 04:55:00,22.2,14.0,29.70,WNW,293,0.0,1.7,70,0.00,,,0.00,WUHU216HW,2013-01-04 09:55:00,
2013-01-04 05:00:00,22.2,14.0,29.70,West,270,0.0,1.7,70,0.00,,,0.00,WUHU216HW,2013-01-04 10:00:00,
2013-01-04 05:10:00,22.2,14.0,29.70,West,270,0.0,0.0,70,0.00,,,0.00,WUHU216HW,2013-01-04 10:10:00,
2013-01-04 05:15:00,22.8,14.8,29.70,West,270,0.0,4.4,71,0.00,,,0.00,WUHU216HW,2013-01-04 10:15:00,
2013-01-04 05:20:00,23.0,15.0,29.70,West,270,0.0,4.4,71,0.00,,,0.00,WUHU216HW,2013-01-04 10:20:00,
2013-01-04 05:25:00,23.0,15.0,29.70,West,270,1.7,1.7,71,0.00,,,0.00,WUHU216HW,2013-01-04 10:25:00,
2013-01-04 05:30:00,23.1,15.1,29.70,West,270,3.8,3.8,71,0.00,,,0.00,WUHU216HW,2013-01-04 10:30:00,
2013-01-04 05:35:00,23.3,15.3,29.70,West,270,0.0,3.8,71,0.00,,,0.00,WUHU216HW,2013-01-04 10:35:00,
2013-01-04 05:40:00,23.3,15.3,29.71,WSW,248,0.6,3.8,71,0.00,,,0.00,WUHU216HW,2013-01-04 10:40:00,
2013-01-04 05:45:00,23.5,15.5,29.71,WSW,248,2.0,6.0,71,0.00,,,0.00,WUHU216HW,2013-01-04 10:45:00,
2013-01-04 05:51:00,23.5,15.5,29.71,West,270,0.0,6.0,71,0.00,,,0.00,WUHU216HW,2013-01-04 10:51:00,
2013-01-04 05:56:00,23.7,15.6,29.71,WNW,293,0.0,2.0,71,0.00,,,0.00,WUHU216HW,2013-01-04 10:56:00,
2013-01-04 06:01:00,23.7,15.6,29.71,West,270,0.0,0.6,71,0.00,,,0.00,WUHU216HW,2013-01-04 11:01:00,
2013-01-04 06:08:00,23.7,15.6,29.71,West,270,2.2,2.2,71,0.00,,,0.00,WUHU216HW,2013-01-04 11:08:00,
2013-01-04 06:13:00,23.7,15.6,29.71,WNW,293,0.0,2.2,71,0.00,,,0.00,WUHU216HW,2013-01-04 11:13:00,
2013-01-04 06:18:00,23.5,15.2,29.70,WNW,293,0.0,0.0,70,0.00,,,0.00,WUHU216HW,2013-01-04 11:18:00,
2013-01-04 06:23:00,23.5,15.5,29.71,WNW,293,0.0,0.0,71,0.00,,,0.00,WUHU216HW,2013-01-04 11:23:00,
2013-01-04 06:28:00,23.3,15.3,29.71,WNW,293,0.0,0.0,71,0.00,,,0.00,WUHU216HW,2013-01-04 11:28:00,
2013-01-04 06:33:00,23.1,15.1,29.72,WNW,293,0.0,0.0,71,0.00,,,0.00,WUHU216HW,2013-01-04 11:33:00,
2013-01-04 06:38:00,23.1,15.1,29.71,WNW,293,0.0,0.0,71,0.00,,,0.00,WUHU216HW,2013-01-04 11:38:00,
2013-01-04 06:43:00,23.0,15.0,29.72,WNW,293,0.0,0.0,71,0.00,,,0.00,WUHU216HW,2013-01-04 11:43:00,
2013-01-04 06:48:00,22.8,14.8,29.72,WNW,293,0.0,0.0,71,0.00,,,0.00,WUHU216HW,2013-01-04 11:48:00,
2013-01-04 06:53:00,22.8,14.8,29.72,WNW,293,0.0,0.0,71,0.00,,,0.00,WUHU216HW,2013-01-04 11:53:00,
2013-01-04 06:59:00,23.0,15.0,29.72,WNW,293,0.0,0.0,71,0.00,,,0.00,WUHU216HW,2013-01-04 11:59:00,
2013-01-04 07:04:00,23.0,15.0,29.72,WNW,293,0.0,0.0,71,0.00,,,0.00,WUHU216HW,2013-01-04 12:04:00,
2013-01-04 07:09:00,22.8,14.8,29.72,WNW,293,0.0,0.0,71,0.00,,,0.00,WUHU216HW,2013-01-04 12:09:00,
2013-01-04 07:14:00,22.4,14.4,29.72,WNW,293,0.0,0.0,71,0.00,,,0.00,WUHU216HW,2013-01-04 12:14:00,
2013-01-04 07:19:00,22.2,14.3,29.72,WNW,293,0.0,0.0,71,0.00,,,0.00,WUHU216HW,2013-01-04 12:19:00,
2013-01-04 07:24:00,21.9,13.9,29.72,WNW,293,0.0,0.0,71,0.00,,,0.00,WUHU216HW,2013-01-04 12:24:00,
2013-01-04 07:29:00,21.9,14.2,29.72,WNW,293,0.0,0.0,72,0.00,,,0.00,WUHU216HW,2013-01-04 12:29:00,
2013-01-04 07:34:00,21.9,14.2,29.73,WNW,293,0.0,0.0,72,0.00,,,0.00,WUHU216HW,2013-01-04 12:34:00,
2013-01-04 07:39:00,21.9,14.2,29.72,WNW,293,0.0,0.0,72,0.00,,,0.00,WUHU216HW,2013-01-04 12:39:00,
2013-01-04 07:44:00,21.9,14.2,29.73,WNW,293,1.5,1.5,72,0.00,,,0.00,WUHU216HW,2013-01-04 12:44:00,
2013-01-04 07:49:00,22.1,14.4,29.73,WNW,293,0.0,1.5,72,0.00,,,0.00,WUHU216HW,2013-01-04 12:49:00,
2013-01-04 07:54:00,22.8,15.1,29.73,WNW,293,1.1,1.1,72,0.00,,,0.00,WUHU216HW,2013-01-04 12:54:00,
2013-01-04 07:59:00,22.8,15.8,29.73,West,270,0.0,1.1,73,0.00,,,0.00,WUHU216HW,2013-01-04 12:59:00,
2013-01-04 08:04:00,23.7,16.3,29.73,WNW,293,0.0,1.1,73,0.00,,,0.00,WUHU216HW,2013-01-04 13:04:00,
2013-01-04 08:09:00,24.6,16.8,29.73,WNW,293,0.0,0.0,72,0.00,,,0.00,WUHU216HW,2013-01-04 13:09:00,
2013-01-04 08:14:00,24.9,17.1,29.73,WNW,293,0.0,0.0,72,0.00,,,0.00,WUHU216HW,2013-01-04 13:14:00,
2013-01-04 08:19:00,25.3,17.5,29.73,WNW,293,0.0,0.0,72,0.00,,,0.00,WUHU216HW,2013-01-04 13:19:00,
2013-01-04 08:24:00,25.7,17.8,29.72,WNW,293,0.0,0.0,72,0.00,,,0.00,WUHU216HW,2013-01-04 13:24:00,
2013-01-04 08:30:00,25.8,17.7,29.72,WNW,293,0.0,3.5,71,0.00,,,0.00,WUHU216HW,2013-01-04 13:30:00,
2013-01-04 08:35:00,26.2,18.0,29.72,WNW,293,0.0,3.5,71,0.00,,,0.00,WUHU216HW,2013-01-04 13:35:00,
2013-01-04 08:40:00,26.6,18.4,29.72,WNW,293,0.0,0.0,71,0.00,,,0.00,WUHU216HW,2013-01-04 13:40:00,
2013-01-04 08:45:00,27.1,18.6,29.72,WNW,293,0.0,0.0,70,0.00,,,0.00,WUHU216HW,2013-01-04 13:45:00,
2013-01-04 08:50:00,27.3,18.8,29.72,WNW,293,0.0,0.0,70,0.00,,,0.00,WUHU216HW,2013-01-04 13:50:00,
2013-01-04 08:55:00,28.0,19.2,29.71,WNW,293,0.0,0.0,69,0.00,,,0.00,WUHU216HW,2013-01-04 13:55:00,
2013-01-04 09:00:00,28.2,19.4,29.71,WNW,293,0.0,0.0,69,0.00,,,0.00,WUHU216HW,2013-01-04 14:00:00,
2013-01-04 09:05:00,28.5,19.3,29.71,West,270,6.0,6.0,68,0.00,,,0.00,WUHU216HW,2013-01-04 14:05:00,
2013-01-04 09:10:00,28.5,19.3,29.71,WNW,293,0.0,6.0,68,0.00,,,0.00,WUHU216HW,2013-01-04 14:10:00,
2013-01-04 09:15:00,28.7,19.5,29.71,West,270,0.0,6.0,68,0.00,,,0.00,WUHU216HW,2013-01-04 14:15:00,
2013-01-04 09:20:00,28.9,19.7,29.71,West,270,2.2,3.8,68,0.00,,,0.00,WUHU216HW,2013-01-04 14:20:00,
2013-01-04 09:25:00,28.9,19.3,29.71,West,270,0.0,2.2,67,0.00,,,0.00,WUHU216HW,2013-01-04 14:25:00,
2013-01-04 09:30:00,29.1,19.5,29.70,WNW,293,0.0,3.1,67,0.00,,,0.00,WUHU216HW,2013-01-04 14:30:00,
2013-01-04 09:35:00,29.3,19.6,29.71,WNW,293,0.0,3.1,67,0.00,,,0.00,WUHU216HW,2013-01-04 14:35:00,
2013-01-04 09:40:00,29.6,19.9,29.71,WNW,293,0.0,1.7,67,0.00,,,0.00,WUHU216HW,2013-01-04 14:40:00,
2013-01-04 09:45:00,30.0,20.3,29.71,WNW,293,0.0,0.0,67,0.00,,,0.00,WUHU216HW,2013-01-04 14:45:00,
2013-01-04 09:50:00,30.7,21.0,29.71,WNW,293,0.0,0.0,67,0.00,,,0.00,WUHU216HW,2013-01-04 14:50:00,
2013-01-04 09:55:00,31.6,21.5,29.70,West,270,0.0,0.0,66,0.00,,,0.00,WUHU216HW,2013-01-04 14:55:00,
2013-01-04 10:00:00,31.8,21.3,29.70,SSW,203,1.3,7.8,64,0.00,,,0.00,WUHU216HW,2013-01-04 15:00:00,
2013-01-04 10:05:00,32.7,21.8,29.70,West,270,2.0,7.8,64,0.00,,,0.00,WUHU216HW,2013-01-04 15:05:00,
2013-01-04 10:10:00,33.0,21.8,29.70,WSW,248,2.4,2.6,63,0.00,,,0.00,WUHU216HW,2013-01-04 15:10:00,
2013-01-04 10:15:00,33.9,22.2,29.70,WSW,248,4.6,5.5,62,0.00,,,0.00,WUHU216HW,2013-01-04 15:15:00,
2013-01-04 10:20:00,34.5,22.1,29.69,West,270,7.1,7.1,60,0.00,,,0.00,WUHU216HW,2013-01-04 15:20:00,
2013-01-04 10:25:00,35.2,22.8,29.69,West,270,1.7,7.1,60,0.00,,,0.00,WUHU216HW,2013-01-04 15:25:00,
2013-01-04 10:30:00,35.4,22.5,29.69,WSW,248,2.4,7.3,59,0.00,,,0.00,WUHU216HW,2013-01-04 15:30:00,
2013-01-04 10:35:00,35.7,22.4,29.69,SW,225,2.4,7.3,58,0.00,,,0.00,WUHU216HW,2013-01-04 15:35:00,
2013-01-04 10:40:00,35.7,22.0,29.68,South,180,1.7,6.0,57,0.00,,,0.00,WUHU216HW,2013-01-04 15:40:00,
2013-01-04 10:45:00,35.7,22.0,29.68,West,270,3.3,10.2,57,0.00,,,0.00,WUHU216HW,2013-01-04 15:45:00,
2013-01-04 10:50:00,35.6,21.8,29.67,West,270,2.2,10.2,57,0.00,,,0.00,WUHU216HW,2013-01-04 15:50:00,
2013-01-04 10:55:00,35.7,22.0,29.67,West,270,2.0,6.9,57,0.00,,,0.00,WUHU216HW,2013-01-04 15:55:00,
2013-01-04 11:00:00,36.1,21.7,29.67,NW,315,5.8,10.0,56,0.00,,,0.00,WUHU216HW,2013-01-04 16:00:00,
2013-01-04 11:05:00,36.3,22.1,29.67,West,270,2.6,10.0,56,0.00,,,0.00,WUHU216HW,2013-01-04 16:05:00,
2013-01-04 11:10:00,36.5,22.2,29.67,West,270,2.2,5.8,56,0.00,,,0.00,WUHU216HW,2013-01-04 16:10:00,
2013-01-04 11:15:00,36.3,21.6,29.66,West,270,10.2,10.2,55,0.00,,,0.00,WUHU216HW,2013-01-04 16:15:00,
2013-01-04 11:20:00,35.9,21.3,29.66,SW,225,6.7,10.2,55,0.00,,,0.00,WUHU216HW,2013-01-04 16:20:00,
2013-01-04 11:26:00,36.1,21.9,29.65,SW,225,3.8,10.5,56,0.02,,,0.02,WUHU216HW,2013-01-04 16:26:00,
2013-01-04 11:31:00,36.3,22.1,29.65,SSE,158,0.0,10.5,56,0.02,,,0.02,WUHU216HW,2013-01-04 16:31:00,
2013-01-04 11:36:00,36.3,21.6,29.65,West,270,6.0,6.0,55,0.02,,,0.02,WUHU216HW,2013-01-04 16:36:00,
2013-01-04 11:41:00,36.3,21.6,29.64,WSW,248,8.2,8.2,55,0.02,,,0.02,WUHU216HW,2013-01-04 16:41:00,
2013-01-04 11:46:00,36.3,21.6,29.64,WSW,248,8.5,13.1,55,0.02,,,0.02,WUHU216HW,2013-01-04 16:46:00,
2013-01-04 11:51:00,36.1,21.5,29.64,WSW,248,5.5,13.1,55,0.02,,,0.02,WUHU216HW,2013-01-04 16:51:00,
2013-01-04 11:56:00,36.5,21.8,29.63,West,270,6.4,8.5,55,0.02,,,0.02,WUHU216HW,2013-01-04 16:56:00,
2013-01-04 12:01:00,36.5,21.8,29.63,WSW,248,4.2,12.0,55,0.02,,,0.02,WUHU216HW,2013-01-04 17:01:00,
2013-01-04 12:06:00,36.6,21.9,29.62,SSW,203,0.0,12.0,55,0.02,,,0.02,WUHU216HW,2013-01-04 17:06:00,
2013-01-04 12:11:00,36.8,22.1,29.62,WSW,248,0.0,8.5,55,0.02,,,0.02,WUHU216HW,2013-01-04 17:11:00,
2013-01-04 12:16:00,37.2,22.4,29.62,West,270,2.4,10.2,55,0.02,,,0.02,WUHU216HW,2013-01-04 17:16:00,
2013-01-04 12:21:00,37.4,22.2,29.62,West,270,5.5,10.2,54,0.00,,,0.02,WUHU216HW,2013-01-04 17:21:00,
2013-01-04 12:26:00,37.4,22.2,29.61,West,270,12.0,12.0,54,0.00,,,0.02,WUHU216HW,2013-01-04 17:26:00,
2013-01-04 12:31:00,37.4,22.2,29.61,West,270,8.9,12.0,54,0.00,,,0.02,WUHU216HW,2013-01-04 17:31:00,
2013-01-04 12:36:00,37.5,22.3,29.61,West,270,1.7,12.0,54,0.00,,,0.02,WUHU216HW,2013-01-04 17:36:00,
2013-01-04 12:41:00,37.9,22.6,29.60,South,180,6.7,7.8,54,0.00,,,0.02,WUHU216HW,2013-01-04 17:41:00,
2013-01-04 12:46:00,38.4,23.1,29.59,West,270,10.5,10.5,54,0.00,,,0.02,WUHU216HW,2013-01-04 17:46:00,
2013-01-04 12:51:00,38.4,22.7,29.59,West,270,6.4,10.5,53,0.00,,,0.02,WUHU216HW,2013-01-04 17:51:00,
2013-01-04 12:56:00,38.4,22.7,29.59,WSW,248,0.0,9.6,53,0.00,,,0.02,WUHU216HW,2013-01-04 17:56:00,
2013-01-04 13:01:00,38.4,22.7,29.59,WSW,248,1.3,7.3,53,0.00,,,0.02,WUHU216HW,2013-01-04 18:01:00,
2013-01-04 13:06:00,38.4,22.7,29.58,West,270,5.1,7.1,53,0.00,,,0.02,WUHU216HW,2013-01-04 18:06:00,
2013-01-04 13:11:00,38.1,22.4,29.58,SSE,158,3.8,12.9,53,0.00,,,0.02,WUHU216HW,2013-01-04 18:11:00,
2013-01-04 13:17:00,37.9,22.2,29.58,WNW,293,8.0,12.9,53,0.00,,,0.02,WUHU216HW,2013-01-04 18:17:00,
2013-01-04 13:22:00,37.9,22.6,29.58,West,270,4.0,10.5,54,0.00,,,0.02,WUHU216HW,2013-01-04 18:22:00,
2013-01-04 13:27:00,38.4,23.1,29.58,West,270,0.0,8.2,54,0.00,,,0.02,WUHU216HW,2013-01-04 18:27:00,
2013-01-04 13:32:00,38.4,23.1,29.58,WSW,248,0.0,6.4,54,0.00,,,0.02,WUHU216HW,2013-01-04 18:32:00,
2013-01-04 13:37:00,38.4,23.1,29.58,WSW,248,0.0,6.4,54,0.00,,,0.02,WUHU216HW,2013-01-04 18:37:00,
2013-01-04 13:42:00,38.1,22.8,29.58,West,270,8.0,10.2,54,0.00,,,0.02,WUHU216HW,2013-01-04 18:42:00,
2013-01-04 13:47:00,37.5,22.8,29.58,West,270,4.0,10.2,55,0.00,,,0.02,WUHU216HW,2013-01-04 18:47:00,
2013-01-04 13:52:00,37.2,22.4,29.57,SW,225,7.1,7.1,55,0.00,,,0.02,WUHU216HW,2013-01-04 18:52:00,
2013-01-04 13:57:00,36.8,22.5,29.57,West,270,0.0,7.3,56,0.00,,,0.02,WUHU216HW,2013-01-04 18:57:00,
2013-01-04 14:02:00,36.5,22.2,29.58,West,270,1.1,7.3,56,0.00,,,0.02,WUHU216HW,2013-01-04 19:02:00,
2013-01-04 14:07:00,36.3,22.5,29.57,WNW,293,7.1,7.8,57,0.00,,,0.02,WUHU216HW,2013-01-04 19:07:00,
2013-01-04 14:12:00,36.3,22.5,29.57,West,270,10.7,10.7,57,0.00,,,0.02,WUHU216HW,2013-01-04 19:12:00,
2013-01-04 14:17:00,36.3,22.5,29.57,SW,225,5.1,10.7,57,0.00,,,0.02,WUHU216HW,2013-01-04 19:17:00,
2013-01-04 14:22:00,36.1,22.3,29.57,WSW,248,3.5,14.7,57,0.00,,,0.02,WUHU216HW,2013-01-04 19:22:00,
2013-01-04 14:27:00,35.9,22.2,29.57,West,270,4.2,14.7,57,0.00,,,0.02,WUHU216HW,2013-01-04 19:27:00,
2013-01-04 14:32:00,35.9,22.6,29.58,WSW,248,6.9,6.9,58,0.00,,,0.02,WUHU216HW,2013-01-04 19:32:00,
2013-01-04 14:37:00,35.9,22.6,29.57,West,270,0.0,6.9,58,0.00,,,0.02,WUHU216HW,2013-01-04 19:37:00,
2013-01-04 14:42:00,35.9,22.6,29.58,West,270,3.1,6.9,58,0.00,,,0.02,WUHU216HW,2013-01-04 19:42:00,
2013-01-04 14:47:00,35.7,22.4,29.58,SW,225,0.0,7.1,58,0.00,,,0.02,WUHU216HW,2013-01-04 19:47:00,
2013-01-04 14:53:00,35.7,22.9,29.58,WSW,248,5.1,7.1,59,0.00,,,0.02,WUHU216HW,2013-01-04 19:53:00,
2013-01-04 14:58:00,35.7,22.9,29.58,West,270,6.2,6.2,59,0.00,,,0.02,WUHU216HW,2013-01-04 19:58:00,
2013-01-04 15:03:00,35.7,22.9,29.57,West,270,0.0,6.2,59,0.00,,,0.02,WUHU216HW,2013-01-04 20:03:00,
2013-01-04 15:08:00,35.7,22.9,29.58,West,270,8.2,8.7,59,0.00,,,0.02,WUHU216HW,2013-01-04 20:08:00,
2013-01-04 15:13:00,35.4,22.5,29.58,West,270,1.3,8.7,59,0.00,,,0.02,WUHU216HW,2013-01-04 20:13:00,
2013-01-04 15:18:00,35.4,22.5,29.58,West,270,0.0,7.8,59,0.00,,,0.02,WUHU216HW,2013-01-04 20:18:00,
2013-01-04 15:23:00,35.4,22.5,29.58,West,270,0.0,7.8,59,0.00,,,0.02,WUHU216HW,2013-01-04 20:23:00,
2013-01-04 15:28:00,35.2,22.3,29.58,WSW,248,2.4,2.4,59,0.00,,,0.02,WUHU216HW,2013-01-04 20:28:00,
2013-01-04 15:33:00,35.2,22.8,29.58,West,270,6.2,6.2,60,0.00,,,0.02,WUHU216HW,2013-01-04 20:33:00,
2013-01-04 15:38:00,35.2,22.8,29.58,West,270,4.0,6.2,60,0.00,,,0.02,WUHU216HW,2013-01-04 20:38:00,
2013-01-04 15:43:00,35.0,22.6,29.58,West,270,3.3,8.0,60,0.00,,,0.02,WUHU216HW,2013-01-04 20:43:00,
2013-01-04 15:48:00,34.8,22.4,29.58,West,270,2.6,8.0,60,0.00,,,0.02,WUHU216HW,2013-01-04 20:48:00,
2013-01-04 15:53:00,34.8,22.4,29.58,WSW,248,0.0,3.3,60,0.00,,,0.02,WUHU216HW,2013-01-04 20:53:00,
2013-01-04 15:58:00,34.8,22.4,29.58,West,270,6.0,6.2,60,0.00,,,0.02,WUHU216HW,2013-01-04 20:58:00,
2013-01-04 16:03:00,34.7,22.2,29.58,West,270,1.7,6.2,60,0.00,,,0.02,WUHU216HW,2013-01-04 21:03:00,
2013-01-04 16:08:00,34.7,22.2,29.58,WNW,293,3.8,6.0,60,0.00,,,0.02,WUHU216HW,2013-01-04 21:08:00,
2013-01-04 16:13:00,34.5,22.1,29.58,West,270,5.1,7.8,60,0.00,,,0.02,WUHU216HW,2013-01-04 21:13:00,
2013-01-04 16:18:00,34.3,21.9,29.58,SW,225,3.1,7.8,60,0.00,,,0.02,WUHU216HW,2013-01-04 21:18:00,
2013-01-04 16:24:00,34.3,21.9,29.58,West,270,1.3,5.1,60,0.00,,,0.02,WUHU216HW,2013-01-04 21:24:00,
2013-01-04 16:29:00,34.3,21.9,29.58,WSW,248,2.2,4.2,60,0.00,,,0.02,WUHU216HW,2013-01-04 21:29:00,
2013-01-04 16:34:00,34.1,21.5,29.58,West,270,0.0,4.2,60,0.00,,,0.02,WUHU216HW,2013-01-04 21:34:00,
2013-01-04 16:39:00,33.9,21.5,29.58,West,270,3.1,3.8,60,0.00,,,0.02,WUHU216HW,2013-01-04 21:39:00,
2013-01-04 16:44:00,33.6,21.2,29.58,West,270,0.0,3.1,60,0.00,,,0.02,WUHU216HW,2013-01-04 21:44:00,
2013-01-04 16:49:00,33.4,21.4,29.58,West,270,4.6,4.6,61,0.00,,,0.02,WUHU216HW,2013-01-04 21:49:00,
2013-01-04 16:54:00,33.4,21.4,29.58,West,270,0.0,4.6,61,0.00,,,0.02,WUHU216HW,2013-01-04 21:54:00,
2013-01-04 16:59:00,33.0,21.0,29.58,West,270,0.0,4.6,61,0.00,,,0.02,WUHU216HW,2013-01-04 21:59:00,
2013-01-04 17:04:00,33.0,21.4,29.58,SE,135,0.0,2.9,62,0.00,,,0.02,WUHU216HW,2013-01-04 22:04:00,
2013-01-04 17:09:00,32.9,21.2,29.58,SSE,158,0.0,0.0,62,0.00,,,0.02,WUHU216HW,2013-01-04 22:09:00,
2013-01-04 17:14:00,32.7,21.1,29.59,SSE,158,0.0,0.0,62,0.00,,,0.02,WUHU216HW,2013-01-04 22:14:00,
2013-01-04 17:19:00,32.7,21.1,29.58,WNW,293,5.3,5.3,62,0.00,,,0.02,WUHU216HW,2013-01-04 22:19:00,
2013-01-04 17:24:00,32.7,21.1,29.58,WNW,293,0.0,5.3,62,0.00,,,0.02,WUHU216HW,2013-01-04 22:24:00,
2013-01-04 17:29:00,32.7,21.1,29.58,WNW,293,0.0,5.3,62,0.00,,,0.02,WUHU216HW,2013-01-04 22:29:00,
2013-01-04 17:34:00,32.7,21.4,29.58,WNW,293,0.0,1.1,63,0.00,,,0.02,WUHU216HW,2013-01-04 22:34:00,
2013-01-04 17:39:00,32.7,21.4,29.58,WNW,293,2.0,2.0,63,0.00,,,0.02,WUHU216HW,2013-01-04 22:39:00,
2013-01-04 17:44:00,32.7,21.4,29.58,WNW,293,0.0,2.0,63,0.00,,,0.02,WUHU216HW,2013-01-04 22:44:00,
2013-01-04 17:49:00,32.7,21.4,29.59,WNW,293,0.0,2.0,63,0.00,,,0.02,WUHU216HW,2013-01-04 22:49:00,
2013-01-04 17:54:00,32.7,21.4,29.59,WNW,293,0.8,0.8,63,0.00,,,0.02,WUHU216HW,2013-01-04 22:54:00,
2013-01-04 17:59:00,32.5,21.3,29.59,WNW,293,0.0,2.4,63,0.00,,,0.02,WUHU216HW,2013-01-04 22:59:00,
2013-01-04 18:04:00,32.5,21.3,29.59,WNW,293,0.0,2.4,63,0.00,,,0.02,WUHU216HW,2013-01-04 23:04:00,
2013-01-04 18:09:00,32.3,21.1,29.59,WNW,293,0.0,0.0,63,0.00,,,0.02,WUHU216HW,2013-01-04 23:09:00,
2013-01-04 18:15:00,32.3,21.1,29.59,WNW,293,0.0,1.3,63,0.00,,,0.02,WUHU216HW,2013-01-04 23:15:00,
2013-01-04 18:20:00,32.3,21.1,29.59,WNW,293,0.0,1.3,63,0.00,,,0.02,WUHU216HW,2013-01-04 23:20:00,
2013-01-04 18:25:00,32.1,21.3,29.59,WNW,293,0.0,2.0,64,0.00,,,0.02,WUHU216HW,2013-01-04 23:25:00,
2013-01-04 18:30:00,32.3,21.1,29.59,WNW,293,1.7,2.2,63,0.00,,,0.02,WUHU216HW,2013-01-04 23:30:00,
2013-01-04 18:35:00,32.3,21.1,29.60,WNW,293,0.0,2.2,63,0.00,,,0.02,WUHU216HW,2013-01-04 23:35:00,
2013-01-04 18:40:00,32.1,21.0,29.60,West,270,0.0,3.8,63,0.00,,,0.02,WUHU216HW,2013-01-04 23:40:00,
2013-01-04 18:45:00,32.1,21.0,29.60,West,270,0.0,5.5,63,0.00,,,0.02,WUHU216HW,2013-01-04 23:45:00,
2013-01-04 18:50:00,32.1,21.0,29.60,WNW,293,2.2,5.5,63,0.00,,,0.02,WUHU216HW,2013-01-04 23:50:00,
2013-01-04 18:55:00,32.1,21.0,29.60,West,270,1.7,2.2,63,0.00,,,0.02,WUHU216HW,2013-01-04 23:55:00,
2013-01-04 19:00:00,32.1,21.0,29.60,West,270,4.9,4.9,63,0.00,,,0.02,WUHU216HW,2013-01-05 00:00:00,
2013-01-04 19:05:00,32.1,21.0,29.60,WNW,293,0.0,9.1,63,0.00,,,0.02,WUHU216HW,2013-01-05 00:05:00,
2013-01-04 19:10:00,31.8,20.6,29.60,WNW,293,0.0,9.1,63,0.00,,,0.02,WUHU216HW,2013-01-05 00:10:00,
2013-01-04 19:16:00,31.6,20.4,29.60,WNW,293,0.0,0.0,63,0.00,,,0.02,WUHU216HW,2013-01-05 00:16:00,
2013-01-04 19:21:00,31.6,20.4,29.60,WNW,293,0.0,0.0,63,0.00,,,0.02,WUHU216HW,2013-01-05 00:21:00,
2013-01-04 19:26:00,31.1,19.9,29.60,WNW,293,0.0,0.0,63,0.00,,,0.02,WUHU216HW,2013-01-05 00:26:00,
2013-01-04 19:31:00,30.7,19.9,29.60,WNW,293,0.0,0.0,64,0.00,,,0.02,WUHU216HW,2013-01-05 00:31:00,
2013-01-04 19:36:00,30.5,19.7,29.60,WNW,293,0.0,0.0,64,0.00,,,0.02,WUHU216HW,2013-01-05 00:36:00,
2013-01-04 19:41:00,30.3,19.5,29.60,WNW,293,0.0,0.0,64,0.00,,,0.02,WUHU216HW,2013-01-05 00:41:00,
2013-01-04 19:46:00,30.0,19.2,29.60,WNW,293,0.0,0.0,64,0.00,,,0.02,WUHU216HW,2013-01-05 00:46:00,
2013-01-04 19:51:00,29.8,19.2,29.60,WNW,293,0.0,0.0,64,0.00,,,0.02,WUHU216HW,2013-01-05 00:51:00,
2013-01-04 19:56:00,29.8,19.4,29.61,WNW,293,0.0,0.0,65,0.00,,,0.02,WUHU216HW,2013-01-05 00:56:00,
2013-01-04 20:01:00,29.6,19.2,29.61,WNW,293,0.0,0.0,65,0.00,,,0.02,WUHU216HW,2013-01-05 01:01:00,
2013-01-04 20:06:00,29.3,18.9,29.60,WNW,293,0.0,0.0,65,0.00,,,0.02,WUHU216HW,2013-01-05 01:06:00,
2013-01-04 20:11:00,29.1,18.7,29.60,WNW,293,0.0,0.0,65,0.00,,,0.02,WUHU216HW,2013-01-05 01:11:00,
2013-01-04 20:16:00,28.9,18.6,29.60,West,270,0.0,0.0,65,0.00,,,0.02,WUHU216HW,2013-01-05 01:16:00,
2013-01-04 20:22:00,28.9,18.6,29.60,West,270,0.0,0.0,65,0.00,,,0.02,WUHU216HW,2013-01-05 01:22:00,
2013-01-04 20:27:00,28.7,18.8,29.60,West,270,0.0,0.0,66,0.00,,,0.02,WUHU216HW,2013-01-05 01:27:00,
2013-01-04 20:32:00,28.9,18.9,29.60,West,270,0.0,0.0,66,0.00,,,0.02,WUHU216HW,2013-01-05 01:32:00,
2013-01-04 20:37:00,28.9,18.9,29.61,West,270,0.0,0.0,66,0.00,,,0.02,WUHU216HW,2013-01-05 01:37:00,
2013-01-04 20:42:00,28.9,18.9,29.61,West,270,0.0,0.0,66,0.00,,,0.02,WUHU216HW,2013-01-05 01:42:00,
2013-01-04 20:47:00,28.7,18.8,29.61,West,270,0.0,0.0,66,0.00,,,0.02,WUHU216HW,2013-01-05 01:47:00,
2013-01-04 20:52:00,28.5,18.6,29.61,West,270,0.0,0.0,66,0.00,,,0.02,WUHU216HW,2013-01-05 01:52:00,
2013-01-04 20:57:00,28.5,18.6,29.61,West,270,0.0,0.0,66,0.00,,,0.02,WUHU216HW,2013-01-05 01:57:00,
2013-01-04 21:02:00,28.2,18.3,29.61,West,270,0.0,0.0,66,0.00,,,0.02,WUHU216HW,2013-01-05 02:02:00,
2013-01-04 21:07:00,28.2,18.3,29.61,West,270,0.0,0.0,66,0.00,,,0.02,WUHU216HW,2013-01-05 02:07:00,
2013-01-04 21:12:00,28.0,18.1,29.61,West,270,0.0,0.0,66,0.00,,,0.02,WUHU216HW,2013-01-05 02:12:00,
2013-01-04 21:17:00,27.6,18.1,29.61,West,270,0.0,0.0,67,0.00,,,0.02,WUHU216HW,2013-01-05 02:17:00,
2013-01-04 21:22:00,27.5,17.9,29.61,West,270,0.0,0.0,67,0.00,,,0.02,WUHU216HW,2013-01-05 02:22:00,
2013-01-04 21:27:00,27.3,17.7,29.61,West,270,0.0,0.0,67,0.00,,,0.02,WUHU216HW,2013-01-05 02:27:00,
2013-01-04 21:32:00,27.1,17.6,29.61,West,270,0.0,0.0,67,0.00,,,0.02,WUHU216HW,2013-01-05 02:32:00,
2013-01-04 21:37:00,27.1,17.6,29.61,West,270,0.0,0.0,67,0.00,,,0.02,WUHU216HW,2013-01-05 02:37:00,
2013-01-04 21:42:00,26.9,17.4,29.61,West,270,0.0,0.0,67,0.00,,,0.02,WUHU216HW,2013-01-05 02:42:00,
2013-01-04 21:47:00,26.7,17.6,29.61,West,270,0.0,0.0,68,0.00,,,0.02,WUHU216HW,2013-01-05 02:47:00,
2013-01-04 21:52:00,26.6,17.4,29.62,West,270,0.0,0.0,68,0.00,,,0.02,WUHU216HW,2013-01-05 02:52:00,
2013-01-04 21:57:00,26.4,17.2,29.61,West,270,0.0,0.0,68,0.00,,,0.02,WUHU216HW,2013-01-05 02:57:00,
2013-01-04 22:02:00,26.4,17.2,29.61,West,270,0.0,0.0,68,0.00,,,0.02,WUHU216HW,2013-01-05 03:02:00,
2013-01-04 22:07:00,26.4,17.2,29.61,West,270,0.0,0.0,68,0.00,,,0.02,WUHU216HW,2013-01-05 03:07:00,
2013-01-04 22:12:00,26.4,17.2,29.61,West,270,0.0,0.0,68,0.00,,,0.02,WUHU216HW,2013-01-05 03:12:00,
2013-01-04 22:17:00,26.2,17.0,29.62,West,270,0.0,0.0,68,0.00,,,0.02,WUHU216HW,2013-01-05 03:17:00,
2013-01-04 22:22:00,26.0,16.8,29.62,West,270,0.0,0.0,68,0.00,,,0.02,WUHU216HW,2013-01-05 03:22:00,
2013-01-04 22:27:00,25.8,16.7,29.62,West,270,0.0,0.0,68,0.00,,,0.02,WUHU216HW,2013-01-05 03:27:00,
2013-01-04 22:32:00,25.8,16.7,29.62,West,270,0.0,0.0,68,0.00,,,0.02,WUHU216HW,2013-01-05 03:32:00,
2013-01-04 22:37:00,25.8,16.7,29.62,West,270,0.0,0.0,68,0.00,,,0.02,WUHU216HW,2013-01-05 03:37:00,
2013-01-04 22:42:00,25.7,16.5,29.62,West,270,0.0,0.0,68,0.00,,,0.02,WUHU216HW,2013-01-05 03:42:00,
2013-01-04 22:47:00,25.8,16.7,29.62,West,270,0.0,0.0,68,0.00,,,0.02,WUHU216HW,2013-01-05 03:47:00,
2013-01-04 22:52:00,26.0,16.8,29.62,West,270,0.0,0.0,68,0.00,,,0.02,WUHU216HW,2013-01-05 03:52:00,
2013-01-04 22:57:00,26.2,17.0,29.62,West,270,0.0,0.0,68,0.00,,,0.02,WUHU216HW,2013-01-05 03:57:00,
2013-01-04 23:02:00,26.4,17.6,29.62,West,270,0.0,0.0,69,0.00,,,0.02,WUHU216HW,2013-01-05 04:02:00,
2013-01-04 23:07:00,26.4,17.6,29.62,West,270,0.0,0.0,69,0.00,,,0.02,WUHU216HW,2013-01-05 04:07:00,
2013-01-04 23:12:00,26.6,17.7,29.62,West,270,0.0,0.0,69,0.00,,,0.02,WUHU216HW,2013-01-05 04:12:00,
2013-01-04 23:17:00,26.7,17.9,29.62,West,270,1.7,1.7,69,0.00,,,0.02,WUHU216HW,2013-01-05 04:17:00,
2013-01-04 23:22:00,26.9,18.1,29.62,West,270,0.0,1.7,69,0.00,,,0.02,WUHU216HW,2013-01-05 04:22:00,
2013-01-04 23:27:00,26.9,18.1,29.62,West,270,0.0,1.7,69,0.00,,,0.02,WUHU216HW,2013-01-05 04:27:00,
2013-01-04 23:32:00,26.9,18.1,29.62,West,270,0.0,0.0,69,0.00,,,0.02,WUHU216HW,2013-01-05 04:32:00,
2013-01-04 23:38:00,26.7,17.9,29.62,West,270,0.0,0.0,69,0.00,,,0.02,WUHU216HW,2013-01-05 04:38:00,
2013-01-04 23:43:00,26.4,17.2,29.62,West,270,0.0,0.0,68,0.00,,,0.02,WUHU216HW,2013-01-05 04:43:00,
2013-01-04 23:48:00,26.4,17.2,29.62,West,270,0.0,0.0,68,0.00,,,0.02,WUHU216HW,2013-01-05 04:48:00,
2013-01-04 23:53:00,26.2,17.0,29.62,West,270,0.0,0.0,68,0.00,,,0.02,WUHU216HW,2013-01-05 04:53:00,
2013-01-04 23:58:00,25.8,16.7,29.62,West,270,0.0,0.0,68,0.00,,,0.02,WUHU216HW,2013-01-05 04:58:00,